Weather History for Fort Campbell, KY

Change the Weather History Date:

Tuesday, February 5, 2013

  Actual Average Record
Temperature  
Mean Temperature 50 °F -  
Max Temperature 59 °F 46 °F 72 °F (2008)
Min Temperature 42 °F 29 °F 10 °F (2009)
Degree Days  
Heating Degree Days 14    
Moisture  
Dew Point 38 °F    
Average Humidity 73    
Maximum Humidity 100    
Minimum Humidity 33    
Precipitation  
Precipitation 0.00 in - - ()
Sea Level Pressure  
Sea Level Pressure 29.98 in    
Wind  
Wind Speed 7 mph (West)    
Max Wind Speed 13 mph    
Max Gust Speed -    
Visibility 10 miles    
Events      
Averages and records for this station are not official NWS values.
T = Trace of Precipitation, MM = Missing Value Source: NWS Daily Summary

Daily Weather History Graph

Daily Weather History Graph

Search for Another Location

Airport:

Trip Planner

Search our weather history database for the weather conditions in past years. The results will help you decide how hot, cold, wet, or windy it might be!

Date:

Astronomy

Feb. 05, 2013 Rise Set
Actual Time 6:48 AM CST 5:20 PM CST
Civil Twilight 6:21 AM CST 5:47 PM CST
Nautical Twilight 5:50 AM CST 6:18 PM CST
Astronomical Twilight 5:20 AM CST 6:48 PM CST
Moon 2:26 AM CST (2/5) 12:40 PM CST (2/5)
Length of Visible Light 11h 26m
Length of Day
10h 32m
Waning Crescent, 26% of the Moon is Illuminated
Feb 5
Waning Crescent
Feb 10
New
Feb 17
First Quarter
Feb 25
Full
Mar 4
Last Quarter

Hourly Weather History & Observations

Time (CST) Temp. Windchill Dew Point Humidity Pressure Visibility Wind Dir Wind Speed Gust Speed Precip Events Conditions
12:03 AM 46.4 °F 42.4 °F 39.2 °F 76% 29.93 in 10.0 mi WSW 8.1 mph - N/A   Overcast
12:55 AM 46.9 °F - 39.7 °F 76% 29.93 in 10.0 mi WSW 9.2 mph - N/A   Overcast
1:54 AM 46.4 °F 41.9 °F 41.0 °F 81% 29.93 in 10.0 mi WSW 9.2 mph - N/A   Overcast
1:55 AM 46.4 °F 42.4 °F 40.5 °F 80% 29.93 in 10.0 mi WSW 8.1 mph - N/A   Overcast
2:55 AM 46.0 °F 41.4 °F 41.0 °F 83% 29.92 in 10.0 mi WSW 9.2 mph - N/A   Overcast
3:55 AM 45.7 °F 42.0 °F 41.4 °F 85% 29.93 in 10.0 mi West 6.9 mph - N/A   Overcast
4:55 AM 45.0 °F 43.5 °F 41.9 °F 89% 29.94 in 10.0 mi West 3.5 mph - N/A   Overcast
5:13 AM 44.6 °F 43.1 °F 41.0 °F 87% 29.93 in 10.0 mi WSW 3.5 mph - N/A   Overcast
5:55 AM 44.2 °F 42.7 °F 42.3 °F 93% 29.95 in 10.0 mi West 3.5 mph - N/A   Overcast
6:55 AM 42.8 °F - 41.9 °F 97% 29.97 in 10.0 mi Calm Calm - N/A   Overcast
7:13 AM 42.8 °F 41.1 °F 42.8 °F 100% 29.98 in 10.0 mi NNW 3.5 mph - N/A   Overcast
7:41 AM 42.8 °F - 42.8 °F 100% 29.99 in 10.0 mi Calm Calm - N/A   Overcast
7:55 AM 42.3 °F - 42.3 °F 100% 30.00 in 10.0 mi Calm Calm - N/A   Overcast
8:55 AM 44.1 °F - 43.2 °F 97% 30.01 in 10.0 mi Calm Calm - N/A   Overcast
9:55 AM 45.9 °F 43.6 °F 43.5 °F 92% 30.02 in 10.0 mi NW 4.6 mph - N/A   Overcast
10:51 AM 48.2 °F - 42.8 °F 82% 30.03 in 10.0 mi WNW 9.2 mph - N/A   Overcast
10:55 AM 47.7 °F - 42.8 °F 83% 30.03 in 10.0 mi NW 9.2 mph - N/A   Overcast
11:14 AM 50.0 °F - 42.8 °F 76% 30.02 in 10.0 mi Variable 6.9 mph - N/A   Scattered Clouds
11:55 AM 50.2 °F - 41.4 °F 72% 29.99 in 10.0 mi West 8.1 mph - N/A   Clear
12:55 PM 56.1 °F - 37.0 °F 49% 29.96 in 10.0 mi WSW 9.2 mph - N/A   Clear
1:55 PM 58.3 °F - 32.2 °F 37% 29.94 in 10.0 mi WSW 11.5 mph - N/A   Clear
2:55 PM 59.2 °F - 32.5 °F 37% 29.95 in 10.0 mi WSW 12.7 mph - N/A   Clear
3:55 PM 58.3 °F - 29.5 °F 33% 29.94 in 10.0 mi West 12.7 mph - N/A   Clear
4:55 PM 55.8 °F - 31.6 °F 40% 29.96 in 10.0 mi West 9.2 mph - N/A   Clear
5:55 PM 51.8 °F - 32.4 °F 48% 29.97 in 10.0 mi West 8.1 mph - N/A   Clear
6:55 PM 48.9 °F - 32.2 °F 52% 30.00 in 10.0 mi West 4.6 mph - N/A   Clear
7:55 PM 46.0 °F 44.8 °F 32.0 °F 58% 30.02 in 10.0 mi West 3.5 mph - N/A   Clear
8:55 PM 44.4 °F 42.0 °F 31.3 °F 60% 30.04 in 10.0 mi WSW 4.6 mph - N/A   Clear
9:55 PM 45.1 °F 42.8 °F 32.0 °F 60% 30.05 in 10.0 mi West 4.6 mph - N/A   Clear
10:55 PM 45.0 °F 41.8 °F 34.5 °F 67% 30.07 in 10.0 mi WNW 5.8 mph - N/A   Clear
11:55 PM 42.8 °F 41.1 °F 34.9 °F 74% 30.09 in 10.0 mi NW 3.5 mph - N/A   Clear